Total_Precipitation_Accumulation
1.97 1.86 1.32 0.84 0.76 0.60 0.47 0.46 0.43 0.45 0.49 0.70 0.75 0.69 0.78 0.75 0.69 0.68 0.69 0.75 0.84 1.01 1.23 1.44 1.75 2.15 2.41 2.69 2.90 3.10 3.19 3.17 3.26 3.48 3.49 3.29 3.05 2.80 2.42 2.23 2.22 2.18 2.10 2.07
1.67 1.35 0.73 0.57 0.63 0.59 0.49 0.49 0.46 0.45 0.51 0.69 0.74 0.68 0.67 0.67 0.64 0.65 0.69 0.68 0.74 0.80 0.99 1.16 1.43 1.75 2.06 2.34 2.72 2.94 3.12 3.27 3.13 3.02 3.16 3.22 3.16 3.00 2.74 2.49 2.42 2.25 2.15 2.10
1.24 0.89 0.64 0.59 0.59 0.60 0.47 0.44 0.41 0.49 0.59 0.67 0.74 0.76 0.62 0.57 0.54 0.56 0.60 0.59 0.63 0.74 0.85 0.99 1.18 1.41 1.71 2.01 2.36 2.65 2.86 3.11 3.22 3.16 3.29 3.35 3.29 3.11 2.86 2.57 2.39 2.28 2.20 2.15
1.14 0.69 0.64 0.65 0.53 0.50 0.44 0.29 0.36 0.48 0.73 0.76 0.73 0.91 0.57 0.52 0.54 0.55 0.60 0.61 0.60 0.67 0.76 0.90 1.05 1.22 1.44 1.76 2.02 2.27 2.60 2.87 3.09 3.23 3.17 3.09 3.04 2.81 2.57 2.52 2.57 2.48 2.30 2.18
1.10 0.72 0.68 0.70 0.49 0.42 0.39 0.28 0.38 0.53 0.73 0.82 0.59 0.77 0.63 0.50 0.62 0.65 0.67 0.66 0.63 0.65 0.74 0.82 0.95 1.11 1.29 1.56 1.81 1.97 2.24 2.56 2.73 2.75 2.78 2.83 2.81 2.75 2.67 2.65 2.62 2.57 2.36 2.18
0.86 0.67 0.73 0.67 0.48 0.41 0.40 0.48 0.55 0.64 0.99 1.17 0.67 0.78 0.75 0.72 0.79 0.69 0.62 0.61 0.67 0.73 0.79 0.86 0.94 1.06 1.15 1.31 1.55 1.77 1.86 2.08 2.31 2.38 2.44 2.54 2.47 2.50 2.54 2.52 2.55 2.58 2.41 2.16
1.15 0.84 0.65 0.59 0.65 0.53 0.54 0.94 1.30 1.31 1.30 0.92 0.54 0.73 0.89 0.79 0.81 0.81 0.74 0.70 0.76 0.83 0.93 1.00 1.00 1.11 1.16 1.24 1.31 1.52 1.66 1.73 1.92 2.12 2.22 2.23 2.29 2.31 2.34 2.30 2.33 2.49 2.51 2.23
1.16 1.11 0.66 0.55 0.65 0.62 0.53 0.75 1.06 1.03 0.81 0.56 0.47 0.74 0.87 0.79 0.76 0.75 0.74 0.76 0.78 0.92 1.07 1.12 1.12 1.26 1.32 1.34 1.35 1.42 1.50 1.48 1.57 1.78 1.97 2.02 2.12 2.12 2.07 2.01 1.99 2.06 2.22 2.28
0.75 0.75 0.44 0.35 0.38 0.51 0.62 0.60 0.53 0.95 0.80 0.64 0.57 0.60 0.64 0.61 0.65 0.73 0.76 0.76 0.82 0.97 1.12 1.22 1.25 1.29 1.28 1.27 1.36 1.43 1.49 1.44 1.38 1.44 1.57 1.71 1.83 1.86 1.80 1.77 1.73 1.75 1.84 1.99
0.44 0.58 0.44 0.37 0.42 0.52 0.52 0.51 0.70 1.33 1.26 0.86 0.56 0.55 0.77 0.73 0.76 0.76 0.75 0.77 0.87 0.91 1.00 1.12 1.14 1.14 1.19 1.22 1.28 1.40 1.47 1.50 1.42 1.38 1.41 1.50 1.55 1.57 1.55 1.55 1.54 1.51 1.54 1.60
0.32 0.48 0.48 0.52 0.52 0.53 0.52 0.60 0.76 1.01 0.99 1.01 0.70 0.79 0.92 0.82 0.77 0.74 0.72 0.75 0.81 0.84 0.86 0.90 0.92 0.97 1.03 1.08 1.20 1.35 1.45 1.47 1.37 1.40 1.42 1.38 1.41 1.49 1.47 1.39 1.38 1.42 1.40 1.39
0.29 0.45 0.50 0.44 0.32 0.30 0.42 0.49 0.67 1.16 0.97 0.77 0.75 0.82 0.75 0.68 0.65 0.65 0.67 0.70 0.72 0.78 0.80 0.78 0.78 0.76 0.76 0.83 0.94 1.06 1.18 1.22 1.23 1.28 1.37 1.30 1.29 1.42 1.46 1.36 1.28 1.30 1.30 1.20
0.48 0.68 0.81 0.64 0.54 0.45 0.49 0.48 0.65 1.02 1.20 0.91 0.85 0.79 0.62 0.54 0.49 0.53 0.58 0.62 0.64 0.64 0.64 0.61 0.61 0.64 0.63 0.65 0.74 0.87 0.97 1.05 1.13 1.19 1.24 1.21 1.18 1.25 1.30 1.33 1.29 1.26 1.29 1.22
0.65 0.73 0.86 0.94 0.85 0.74 0.64 0.49 0.65 1.22 1.50 0.84 0.61 0.64 0.53 0.49 0.52 0.54 0.53 0.53 0.53 0.51 0.50 0.47 0.46 0.48 0.49 0.53 0.64 0.73 0.79 0.87 1.00 1.07 1.08 1.06 1.07 1.08 1.09 1.13 1.15 1.12 1.13 1.16
0.61 0.87 0.79 0.67 0.57 0.66 0.66 0.53 0.61 0.90 0.81 0.74 0.54 0.50 0.57 0.55 0.57 0.56 0.51 0.45 0.40 0.37 0.36 0.34 0.35 0.36 0.38 0.39 0.45 0.58 0.69 0.77 0.90 1.02 1.04 1.03 1.00 0.97 0.96 0.98 0.96 0.94 0.98 1.04
0.59 0.91 0.88 0.70 0.42 0.45 0.48 0.39 0.45 0.55 0.50 0.49 0.41 0.47 0.44 0.43 0.45 0.47 0.42 0.37 0.33 0.33 0.32 0.28 0.27 0.27 0.30 0.33 0.36 0.44 0.59 0.69 0.80 0.91 0.97 0.98 0.97 0.93 0.91 0.89 0.89 0.86 0.88 0.95
0.57 0.84 1.09 0.81 0.42 0.48 0.54 0.43 0.44 0.51 0.46 0.44 0.53 0.49 0.34 0.35 0.42 0.50 0.45 0.36 0.32 0.32 0.31 0.29 0.27 0.26 0.26 0.28 0.35 0.44 0.54 0.60 0.66 0.73 0.81 0.86 0.87 0.88 0.88 0.87 0.90 0.95 0.97 1.00
0.39 0.64 1.05 0.89 0.66 0.79 0.58 0.36 0.35 0.43 0.45 0.41 0.43 0.36 0.32 0.37 0.38 0.41 0.43 0.39 0.34 0.28 0.26 0.26 0.27 0.26 0.25 0.27 0.32 0.42 0.53 0.62 0.68 0.75 0.78 0.79 0.82 0.87 0.90 0.96 1.04 1.12 1.18 1.20
0.23 0.57 0.98 0.87 0.68 0.46 0.30 0.22 0.31 0.41 0.46 0.36 0.33 0.27 0.23 0.26 0.33 0.35 0.32 0.34 0.34 0.29 0.28 0.27 0.28 0.30 0.29 0.31 0.33 0.39 0.52 0.61 0.68 0.75 0.82 0.85 0.92 1.00 1.05 1.14 1.21 1.24 1.31 1.31
0.18 0.43 0.92 0.87 0.72 0.41 0.29 0.14 0.15 0.30 0.49 0.27 0.23 0.24 0.21 0.22 0.34 0.36 0.33 0.36 0.38 0.33 0.30 0.30 0.29 0.29 0.33 0.37 0.40 0.48 0.61 0.71 0.79 0.85 0.95 0.96 0.99 1.05 1.08 1.11 1.10 1.09 1.09 1.08
0.29 0.51 0.76 0.71 0.68 0.37 0.24 0.09 0.10 0.38 0.50 0.26 0.25 0.26 0.25 0.31 0.38 0.34 0.31 0.34 0.37 0.39 0.40 0.40 0.39 0.42 0.48 0.54 0.60 0.70 0.80 0.92 0.98 0.99 1.04 1.02 0.97 0.98 0.96 0.91 0.84 0.80 0.78 0.74
0.30 0.43 0.47 0.50 0.71 0.50 0.23 0.16 0.33 0.46 0.28 0.23 0.22 0.24 0.26 0.25 0.23 0.23 0.24 0.28 0.31 0.34 0.38 0.43 0.49 0.51 0.54 0.64 0.74 0.83 0.93 0.99 0.95 0.90 0.88 0.82 0.73 0.69 0.66 0.64 0.63 0.61 0.61 0.62
0.30 0.44 0.46 0.48 0.56 0.44 0.32 0.32 0.33 0.29 0.26 0.22 0.24 0.22 0.23 0.24 0.24 0.24 0.23 0.24 0.26 0.27 0.28 0.32 0.40 0.45 0.45 0.51 0.57 0.64 0.66 0.65 0.64 0.62 0.62 0.59 0.56 0.53 0.53 0.54 0.56 0.57 0.56 0.58
0.30 0.27 0.35 0.41 0.40 0.31 0.27 0.23 0.21 0.20 0.23 0.21 0.21 0.20 0.19 0.23 0.22 0.22 0.22 0.22 0.23 0.24 0.25 0.26 0.29 0.32 0.34 0.36 0.39 0.41 0.42 0.44 0.47 0.50 0.52 0.53 0.54 0.51 0.51 0.53 0.54 0.58 0.59 0.60
0.32 0.29 0.34 0.37 0.30 0.24 0.22 0.19 0.20 0.18 0.16 0.16 0.15 0.15 0.17 0.19 0.18 0.19 0.20 0.21 0.22 0.22 0.23 0.25 0.31 0.35 0.38 0.37 0.38 0.39 0.41 0.45 0.48 0.50 0.54 0.56 0.57 0.55 0.54 0.55 0.57 0.61 0.64 0.70
0.29 0.36 0.44 0.43 0.31 0.31 0.27 0.19 0.17 0.16 0.16 0.17 0.18 0.18 0.17 0.19 0.22 0.22 0.23 0.24 0.24 0.24 0.24 0.25 0.28 0.34 0.39 0.38 0.38 0.39 0.42 0.47 0.51 0.51 0.52 0.56 0.59 0.59 0.58 0.55 0.56 0.61 0.64 0.67